Regional Weather Roundup
Issued by NWS Goodland, KS

Home | Current Version | Previous Version | Graphics & Text | Print | Product List | Glossary On
Versions: 1 2 3 4 5 6 7 8 9 10 11 12 13 14 15 16 17 18 19 20 21 22 23 24 25 26 27 28 29 30 31 32 33 34 35 36 37 38 39 40 41 42 43 44 45 46 47 48 49 50
345
ASUS43 KGLD 242259
RWRGLD

GOODLAND FORECAST AREA HOURLY WEATHER ROUNDUP
NATIONAL WEATHER SERVICE GOODLAND KS
500 PM MDT MON APR 24 2017

...OFFICIAL OBSERVATIONS...

CITY           SKY/WX    TMP DP  RH WIND       PRES   REMARKS
GOODLAND KS    SUNNY     72  40  31 E7        29.55F
HILL CITY KS   SUNNY     80  42  25 N5        29.50S
IMPERIAL NEB   MOSUNNY   70  35  27 NE12      29.54S
MCCOOK NEB     SUNNY     76  42  29 NE10G21   29.51R
AKRON CO       PTSUNNY   64  32  30 E9        29.59F
BURLINGTON CO  NOT AVBL
LIMON CO       CLOUDY    63  35  35 NE12      29.60F
$$

...UNOFFICIAL OBSERVATIONS...

CITY           SKY/WX    TMP DP  RH WIND       PRES   REMARKS
LENORA KS        N/A     76  32  20 MISG        N/A
NORTON KS      SUNNY     75  37  25 NE3       29.50R
SHARON SPRINGS   N/A     75  44  33 E7          N/A
TRENTON NEB      N/A     72  32  23 N5          N/A
YUMA CO        FAIR      64  32  29 CALM      29.58F
$$




USA.gov is the U.S. government's official web portal to all federal, state and local government web resources and services.